Regional Weather Roundup
Issued by NWS

Home | Current Version | Previous Version | Graphics & Text | Print | Product List | Glossary On
Versions: 1 2 3 4 5 6 7 8 9 10 11 12 13 14 15 16 17 18 19 20 21 22 23 24 25 26 27 28 29 30 31 32 33 34 35 36 37 38 39 40 41 42 43 44 45 46 47 48 49
000
ASUS45 KBOU 191307
RWRCO

WEATHER ROUNDUP FOR COLORADO
NATIONAL WEATHER SERVICE DENVER/BOULDER CO
700 AM MDT FRI SEP 19 2014

NOTE: "FAIR" INDICATES FEW OR NO CLOUDS BELOW 12000 FEET WITH NO
SIGNIFICANT WEATHER AND/OR OBSTRUCTIONS TO VISIBILITY.

COZ001>005-013-030-031-191400-
...NORTHWEST COLORADO...

CITY           SKY/WX    TMP DP  RH WIND       PRES   REMARKS
CRAIG          PTCLDY    47  39  74 NW6       30.14R
HAYDEN         PTCLDY    48  37  66 E3        30.15R
MEEKER         CLEAR     47  39  74 CALM      30.15R
MOUNT WERNER   NOT AVBL
STEAMBOAT SPGS PTCLDY    45  41  85 CALM      30.17R
WALDEN         CLEAR     39  32  75 N3        30.23R
$$

COZ006>008-011-191400-
...WEST CENTRAL VALLEYS...

CITY           SKY/WX    TMP DP  RH WIND       PRES   REMARKS
GRAND JUNCTION CLEAR     56  42  59 SE6       30.01R
MONTROSE       CLEAR     57  43  59 SE7       30.10R
EAGLE          CLEAR     45  39  81 CALM      30.19R
RIFLE          MOCLDY    50  42  74 CALM      30.08R
DELTA          CLEAR     57  42  57 NE7       30.06R
NUCLA          PTCLDY    54  39  58 SE9       30.13R
$$

COZ017>023-064>068-191400-
...SOUTHWEST COLORADO...

CITY           SKY/WX    TMP DP  RH WIND       PRES   REMARKS
DURANGO        CLEAR     49  41  74 CALM      30.17R
CORTEZ         CLEAR     46  42  86 CALM      30.11R
PAGOSA SPRINGS CLEAR     44  38  79 CALM      30.24R
TELLURIDE      NOT AVBL
WOLF CREEK PAS CLEAR     39  39 100 SW10      30.47S
$$

COZ009-010-012-014-032>034-037-058>063-191400-
...CENTRAL COLORADO...

CITY           SKY/WX    TMP DP  RH WIND       PRES   REMARKS
ASPEN          CLEAR     47  37  68 S6        30.22R
BUENA VISTA    CLEAR     45  31  59 CALM      30.25R
COPPER MTN     NOT AVBL
BERTHOUD PASS  FAIR      41  37  87 NW17      30.53R
COTTONWOOD PAS CLEAR     55  28  35 W7        30.35S
GUNNISON       CLEAR     39  30  70 E3        30.28R
KREMMLING      CLOUDY    41  36  81 E3        30.24R
LEADVILLE      CLEAR     38  27  64 CALM      30.35R
MONARCH PASS   CLEAR     45  32  61 SW8       30.58S
SALIDA         CLEAR     49  33  54 W3        30.29S
SUNLIGHT       CLEAR     54  36  50 CALM      30.42S
WILKERSON PASS NOT AVBL
$$

COZ069>075-191400-
...SAN LUIS VALLEY/SANGRE DE CRISTO MOUNTAINS...

CITY           SKY/WX    TMP DP  RH WIND       PRES   REMARKS
ALAMOSA        PTCLDY    36  31  82 CALM      30.21R
LA VETA PASS   CLEAR     45  39  81 S6        30.35R
SAGUACHE       NOT AVBL
$$

COZ035-036-038>040-191400-
...NORTHERN COLORADO FRONT RANGE...

CITY           SKY/WX    TMP DP  RH WIND       PRES   REMARKS
DENVER INTL AP PTCLDY    65  35  33 S12       29.98R
DMNS CITY PARK   N/A     62  36  37 S7        29.98R
AURORA         PTCLDY    64  34  32 S15       30.00R
FRONT RANGE AP NOT AVBL
ERIE MUNI ARPT CLEAR     50  42  73 CALM      29.97R
BOULDER MUN AP CLEAR     55  45  67 W3        29.97R
CENTENNIAL     PTCLDY    62  33  33 SE8       30.02R
BROOMFIELD     PTCLDY    64  36  34 CALM      30.00R
FORT COLLINS   CLEAR     55  43  62 N5        29.98R
LONGMONT       CLEAR     51  43  75 CALM      29.98R HAZE
$$

COZ041-046-047-076>085-087-088-191400-
...PIKES PEAK/PALMER DIVIDE AND SOUTHERN FOOTHILLS...

CITY           SKY/WX    TMP DP  RH WIND       PRES   REMARKS
COLO. SPRINGS  CLEAR     52  43  71 N8        30.08S
A. F. ACADEMY  CLEAR     46  40  79 N12       30.10R
ELLICOTT       NOT AVBL
FALCON         CLEAR     49  42  75 W7        30.12S
FORT CARSON    CLEAR     53  38  55 NW12      30.05R
LIMON          CLEAR     48  46  93 CALM      30.02S
MONUMENT HILL  CLEAR     54  39  58 S12       30.11S
TRINIDAD       CLEAR     61  52  72 SW16G24   30.05S
$$

COZ042>045-048>051-090-091-191400-
...NORTHEAST COLORADO...

CITY           SKY/WX    TMP DP  RH WIND       PRES   REMARKS
GREELEY ARPT   PTCLDY    50  39  66 NW3       29.96R
AKRON          CLEAR     67  42  40 S12G22    29.95R
BURLINGTON     CLEAR     61  57  87 S12       29.97R
WRAY           CLEAR     60  55  84 SW7       29.91S
STERLING       CLEAR     54  54 100 SW7       29.90R
HOLYOKE        CLEAR     59  54  82 SW8       29.90R
FORT MORGAN    CLEAR     55  46  71 W7        29.95R
$$

COZ086-089-092>099-191400-
...SOUTHEAST COLORADO...

CITY           SKY/WX    TMP DP  RH WIND       PRES   REMARKS
PUEBLO         CLEAR     49  43  80 CALM      29.99F
LA JUNTA       CLEAR     54  52  93 NE5       29.98R
LAMAR          CLEAR     61  59  93 S12       29.95S
SPRINGFIELD      N/A     61  59  93 S12G23    30.02S
$$


USA.gov is the U.S. government's official web portal to all federal, state and local government web resources and services.